This demonstration page uses our WeatherBlox Daily Observations layout. Learn more.

Left ArrowRight Arrow

Hourly Observations for December 11, 2016

Temp ( °F °C ) Dew Point ( °F °C ) Humidity (%) Winds ( mph kmh ) Pressure ( in mb ) Visibility ( mi km ) Precip ( " mm )
12:53 am 00:53 Clear -12 -24.4 -16 -26.7 81 81 WSW 6 9 30.15 1021 10 16 0.00 0.00
1:53 am 01:53 Clear -9 -22.8 -13 -25 82 82 SW 10 17 30.16 1021 10 16 0.00 0.00
2:53 am 02:53 Clear -14 -25.6 -17 -27.2 86 86 WSW 6 9 30.18 1022 10 16 0.00 0.00
3:53 am 03:53 Clear -15 -26.1 -19 -28.3 82 82 W 3 6 30.17 1022 10 16 0.00 0.00
4:53 am 04:53 Clear -17 -27.2 -21 -29.4 82 82 WSW 8 13 30.18 1022 10 16 0.00 0.00
5:53 am 05:53 Clear -15 -26.1 -20 -28.9 77 77 Calm 30.18 1022 10 16 0.00 0.00
6:53 am 06:53 Mostly Cloudy -13 -25 -17 -27.2 82 82 Calm 30.17 1022 10 16 0.00 0.00
7:53 am 07:53 Mostly Clear -12 -24.4 -17 -27.2 78 78 Calm 30.16 1021 10 16 0.00 0.00
8:53 am 08:53 Cloudy with Light Snow -7 -21.7 -10 -23.3 87 87 WNW 8 13 30.18 1022 2 3 0.00 0.03
9:10 am 09:10 Cloudy with Light Snow -6 -21 -9 -23 84 84 WNW 7 11 30.33 1027 1 2 0.00 0.00
9:23 am 09:23 Cloudy with Light Snow -5 -20.6 -9 -22.8 83 83 W 6 9 30.33 1027 2 2 0.00 0.03
9:43 am 09:43 Cloudy with Light Snow -4 -20 -8 -22.2 83 83 W 3 6 30.30 1026 1 2 0.00 0.03
9:53 am 09:53 Cloudy with Light Snow -3 -19.4 -7 -21.7 82 82 WNW 3 6 30.18 1022 1 2 0.00 0.03
10:18 am 10:18 Cloudy with Light Snow -2 -19 -8 -22 77 77 NW 6 9 30.30 1026 2 2 0.00 0.00
10:26 am 10:26 Cloudy with Light Snow -2 -19 -8 -22 77 77 WNW 5 7 30.30 1026 1 2 0.00 0.00
10:53 am 10:53 Cloudy with Light Snow -2 -18.9 -6 -21.1 83 83 W 5 7 30.17 1022 1 2 0.02 0.51
11:16 am 11:16 Mostly Cloudy with Light Snow -2 -19 -6 -21 84 84 W 6 9 30.30 1026 1 1 0.00 0.00
11:32 am 11:32 Cloudy with Light Snow 0 -18 -6 -21 78 78 W 7 11 30.30 1026 1 2 0.00 0.00
11:53 am 11:53 Mostly Cloudy with Light Snow 0 -17.8 -5 -20.6 79 79 WNW 7 11 30.16 1022 1 2 0.02 0.51
12:17 pm 12:17 Mostly Cloudy with Light Snow 1 -17.2 -3 -19.4 83 83 WNW 12 19 30.27 1025 1 1 0.01 0.25
12:24 pm 12:24 Cloudy with Light Snow 1 -17 -2 -19 85 85 WNW 10 17 30.27 1025 1 2 0.00 0.00
12:27 pm 12:27 Cloudy with Light Snow 1 -17.2 -3 -19.4 83 83 WNW 10 17 30.27 1025 2 3 0.01 0.25
12:36 pm 12:36 Cloudy with Light Snow 1 -17 -4 -20 78 78 NW 10 17 30.27 1025 4 6 0.00 0.00
12:44 pm 12:44 Cloudy with Light Snow 1 -17 -4 -20 78 78 NW 9 15 30.27 1025 3 5 0.00 0.00
12:49 pm 12:49 Cloudy with Light Snow 1 -17 -4 -20 78 78 NW 10 17 30.27 1025 2 3 0.01 0.25
12:53 pm 12:53 Cloudy with Light Snow 1 -17.2 -4 -20 79 79 NW 12 19 30.17 1022 2 3 0.02 0.51
12:59 pm 12:59 Cloudy with Light Snow 1 -17.2 -4 -20 79 79 NW 12 19 30.27 1025 1 1 0.00 0.03
1:15 pm 13:15 Cloudy with Light Snow 1 -17.2 -4 -20 79 79 NW 12 19 30.27 1025 2 2 0.00 0.03
1:31 pm 13:31 Cloudy with Light Snow 1 -17.2 -4 -20 79 79 NW 10 17 30.27 1025 1 1 0.01 0.25
1:51 pm 13:51 Cloudy with Light Snow 1 -17 -4 -20 78 78 NW 15 24 30.27 1025 2 2 0.01 0.25
1:53 pm 13:53 Cloudy with Light Snow 1 -17.2 -5 -20.6 75 75 NW 12 19 30.18 1022 2 3 0.01 0.25
2:02 pm 14:02 Cloudy with Light Snow 1 -17 -6 -21 71 71 NW 12 19 30.27 1025 6 10 0.00 0.00
2:13 pm 14:13 Cloudy with Light Snow 1 -17.2 -5 -20.6 75 75 WNW 12 19 30.27 1025 3 5 0.00 0.03
2:28 pm 14:28 Cloudy with Light Snow 1 -17 -6 -21 71 71 WNW 12 19 30.27 1025 2 3 0.00 0.00
2:32 pm 14:32 Cloudy with Light Snow 1 -17 -6 -21 71 71 WNW 13 20 30.27 1025 1 2 0.00 0.00
2:38 pm 14:38 Cloudy with Light Snow 0 -18 -6 -21 78 78 WNW 12 19 30.30 1026 2 2 0.00 0.00
2:47 pm 14:47 Cloudy with Light Snow 0 -18 -6 -21 78 78 NW 12 19 30.30 1026 3 5 0.01 0.25
2:48 pm 14:48 Cloudy with Light Snow 0 -17.8 -6 -21.1 76 76 NW 12 19 30.19 1022 3 5 0.01 0.25
3:53 pm 15:53 Cloudy with Light Snow 0 -17.8 -7 -21.7 72 72 WNW 12 19 30.21 1023 5 8 0.00 0.03
4:25 pm 16:25 Cloudy with Light Snow -1 -18.3 -8 -22.2 72 72 NW 8 13 30.30 1026 2 3 0.00 0.03
4:41 pm 16:41 Cloudy with Light Snow -1 -18.3 -8 -22.2 72 72 WNW 8 13 30.33 1027 3 4 0.00 0.03
4:50 pm 16:50 Cloudy with Light Snow 0 -18 -8 -22 71 71 WNW 10 17 30.33 1027 3 5 0.00 0.00
4:53 pm 16:53 Cloudy with Light Snow -2 -18.9 -7 -21.7 79 79 WNW 10 17 30.21 1023 3 5 0.00 0.03
5:53 pm 17:53 Cloudy with Light Snow -3 -19.4 -9 -22.8 75 75 W 10 17 30.21 1023 6 10 0.00 0.03
6:53 pm 18:53 Cloudy with Light Snow -2 -18.9 -8 -22.2 75 75 WNW 8 13 30.20 1023 4 6 0.00 0.03
7:51 pm 19:51 Cloudy with Light Snow -2 -19 -8 -22 77 77 WNW 7 11 30.30 1026 2 3 0.01 0.25
7:52 pm 19:52 Cloudy with Light Snow -3 -19.4 -8 -22.2 79 79 WNW 7 11 30.20 1023 2 3 0.01 0.25
8:00 pm 20:00 Cloudy with Light Snow -2 -19 -8 -22 77 77 WNW 7 11 30.30 1026 2 3 0.00 0.00
8:53 pm 20:53 Cloudy with Light Snow -3 -19.4 -9 -22.8 75 75 WNW 8 13 30.20 1023 3 4 0.00 0.03
9:18 pm 21:18 Cloudy with Light Snow -4 -20 -9 -23 77 77 WNW 8 13 30.36 1028 3 5 0.00 0.00
9:32 pm 21:32 Cloudy with Light Snow -4 -20 -9 -23 77 77 W 6 9 30.36 1028 4 6 0.00 0.00
9:53 pm 21:53 Cloudy with Light Snow -3 -19.4 -8 -22.2 79 79 W 7 11 30.19 1022 5 8 0.01 0.25
10:53 pm 22:53 Cloudy with Light Snow -3 -19.4 -9 -22.8 75 75 W 9 15 30.19 1023 6 10 0.00 0.03
11:53 pm 23:53 Cloudy with Light Snow -2 -18.9 -8 -22.2 75 75 W 9 15 30.20 1023 7 11 0.00 0.03

Powered by AerisWeather